Simultaneous Nadir Overpasses (SNOs) Predictions

Prediction of SNOs between NOAA-21 and FY3D Satellite Orbit:

Table of predicted SNOs for the next 14.0 days since TLE Epoch: 6/14/2024
Index Date (NOAA-21) Time (NOAA-21) Lat,Lon (NOAA-21) SZA (NOAA-21 ) Date (FY3D) Time (FY3D) Lat,Lon (FY3D) SZA (FY3D ) Distance(km) Time Diff (sec)
1 06/14/2024 22:15:27 81.10, 149.30 62.04 06/14/2024 22:15:12 81.11, 149.26 62.06 0.78 15
2 06/14/2024 23:06:12 -81.11, -43.53 117.94 06/14/2024 23:05:58 -81.10, -43.43 117.95 1.77 14
3 06/14/2024 23:56:57 81.10, 123.92 62.04 06/14/2024 23:56:43 81.10, 123.77 62.07 2.65 14
4 06/15/2024 00:47:42 -81.11, -68.90 117.95 06/15/2024 00:47:29 -81.10, -68.91 117.94 0.37 13
5 06/15/2024 01:38:27 81.10, 98.55 62.04 06/15/2024 01:38:13 81.11, 98.66 62.03 2.08 14
6 06/15/2024 02:29:12 -81.11, -94.28 117.95 06/15/2024 02:29:00 -81.10, -94.40 117.93 2.18 12
7 06/15/2024 03:19:57 81.10, 73.17 62.03 06/15/2024 03:19:44 81.11, 73.17 62.04 0.39 13
8 06/15/2024 04:10:42 -81.11,-119.66 117.95 06/15/2024 04:10:30 -81.11,-119.51 117.96 2.50 12
9 06/15/2024 05:01:27 81.10, 47.79 62.03 06/15/2024 05:01:15 81.10, 47.68 62.05 1.90 12
10 06/15/2024 05:52:12 -81.11,-145.03 117.95 06/15/2024 05:52:01 -81.10,-145.00 117.95 0.61 11
11 06/15/2024 06:42:57 81.10, 22.42 62.03 06/15/2024 06:42:45 81.11, 22.58 62.02 2.82 12
12 06/15/2024 07:33:42 -81.11,-170.41 117.96 06/15/2024 07:33:32 -81.10,-170.49 117.94 1.46 10
13 06/15/2024 08:24:27 81.10, -2.96 62.03 06/15/2024 08:24:16 81.11, -2.91 62.03 0.92 11
14 06/15/2024 09:15:12 -81.11, 164.22 117.96 06/15/2024 09:15:02 -81.11, 164.41 117.98 3.23 10
15 06/15/2024 10:05:57 81.10, -28.34 62.03 06/15/2024 10:05:47 81.10, -28.40 62.04 1.16 10
16 06/15/2024 10:56:42 -81.11, 138.84 117.96 06/15/2024 10:56:33 -81.10, 138.92 117.96 1.30 9
17 06/15/2024 11:47:27 81.10, -53.71 62.02 06/15/2024 11:47:18 81.10, -53.89 62.05 3.08 9
18 06/15/2024 12:38:12 -81.11, 113.47 117.96 06/15/2024 12:38:04 -81.10, 113.43 117.95 0.77 8
19 06/15/2024 13:28:57 81.10, -79.09 62.02 06/15/2024 13:28:48 81.11, -79.00 62.02 1.64 9
20 06/15/2024 14:19:42 -81.11, 88.09 117.96 06/15/2024 14:19:35 -81.10, 87.94 117.94 2.67 7
21 06/15/2024 15:10:26 81.10,-104.47 62.02 06/15/2024 15:10:18 81.11,-104.49 62.03 0.48 8
22 06/15/2024 16:01:11 -81.11, 62.71 117.96 06/15/2024 16:01:04 -81.11, 62.83 117.98 2.02 7
23 06/15/2024 16:51:56 81.10,-129.84 62.02 06/15/2024 16:51:49 81.10,-129.98 62.04 2.33 7
24 06/15/2024 17:42:41 -81.11, 37.34 117.97 06/15/2024 17:42:35 -81.10, 37.34 117.96 0.34 6
25 06/15/2024 18:33:26 81.10,-155.22 62.02 06/15/2024 18:33:19 81.11,-155.08 62.01 2.38 7
26 06/15/2024 19:24:11 -81.11, 11.96 117.97 06/15/2024 19:24:06 -81.10, 11.85 117.95 1.95 5
27 06/15/2024 20:14:56 81.10, 179.40 62.02 06/15/2024 20:14:50 81.11, 179.43 62.02 0.50 6
28 06/15/2024 21:05:41 -81.11, -13.41 117.97 06/15/2024 21:05:36 -81.11, -13.26 117.99 2.74 5
29 06/15/2024 21:56:26 81.10, 154.03 62.01 06/15/2024 21:56:21 81.10, 153.94 62.03 1.58 5
30 06/15/2024 22:47:11 -81.11, -38.79 117.97 06/15/2024 22:47:07 -81.10, -38.74 117.98 0.84 4
31 06/15/2024 23:37:56 81.10, 128.65 62.01 06/15/2024 23:37:51 81.11, 128.83 61.99 3.12 5
32 06/16/2024 00:28:41 -81.11, -64.17 117.97 06/16/2024 00:28:38 -81.10, -64.23 117.96 1.24 3
33 06/16/2024 01:19:26 81.10, 103.27 62.01 06/16/2024 01:19:22 81.11, 103.34 62.01 1.19 4
34 06/16/2024 02:10:11 -81.11, -89.54 117.97 06/16/2024 02:10:09 -81.10, -89.72 117.95 3.17 2
35 06/16/2024 03:00:56 81.10, 77.90 62.01 06/16/2024 03:00:53 81.10, 77.85 62.02 0.84 3
36 06/16/2024 03:51:41 -81.11,-114.92 117.98 06/16/2024 03:51:39 -81.10,-114.83 117.99 1.53 2
37 06/16/2024 04:42:26 81.10, 52.52 62.01 06/16/2024 04:42:24 81.10, 52.36 62.03 2.77 2
38 06/16/2024 05:33:11 -81.11,-140.30 117.98 06/16/2024 05:33:10 -81.10,-140.32 117.98 0.60 1
39 06/16/2024 06:23:56 81.10, 27.14 62.01 06/16/2024 06:23:54 81.11, 27.25 62.00 1.92 2
40 06/16/2024 07:14:41 -81.11,-165.67 117.98 06/16/2024 07:14:41 -81.10,-165.81 117.96 2.45 0
41 06/16/2024 08:05:26 81.10, 1.76 62.01 06/16/2024 08:05:25 81.11, 1.76 62.01 0.24 1
42 06/16/2024 08:56:11 -81.11, 168.95 117.98 06/16/2024 08:56:11 -81.11, 169.08 118.00 2.25 0
43 06/16/2024 09:46:56 81.10, -23.61 62.00 06/16/2024 09:46:56 81.10, -23.73 62.02 2.02 0
44 06/16/2024 10:37:41 -81.11, 143.58 117.98 06/16/2024 10:37:42 -81.10, 143.59 117.99 0.47 1
45 06/16/2024 11:28:26 81.10, -48.99 62.00 06/16/2024 11:28:26 81.11, -48.84 61.98 2.67 0
46 06/16/2024 12:19:11 -81.11, 118.20 117.98 06/16/2024 12:19:13 -81.10, 118.10 117.97 1.74 2
47 06/16/2024 13:09:56 81.10, -74.37 62.00 06/16/2024 13:09:57 81.11, -74.33 62.00 0.73 1
48 06/16/2024 14:00:41 -81.11, 92.82 117.98 06/16/2024 14:00:43 -81.11, 92.99 118.01 2.96 2
49 06/16/2024 14:51:26 81.10, -99.74 62.00 06/16/2024 14:51:28 81.10, -99.82 62.01 1.27 2
50 06/16/2024 15:42:11 -81.11, 67.45 117.99 06/16/2024 15:42:14 -81.10, 67.50 118.00 1.06 3
51 06/16/2024 16:32:56 81.10,-125.12 62.00 06/16/2024 16:32:59 81.10,-125.31 62.02 3.22 3
52 06/16/2024 17:23:41 -81.11, 42.07 117.99 06/16/2024 17:23:45 -81.10, 42.01 117.98 1.06 4
53 06/16/2024 18:14:26 81.10,-150.50 62.00 06/16/2024 18:14:29 81.11,-150.42 61.99 1.46 3
54 06/16/2024 19:05:11 -81.11, 16.69 117.99 06/16/2024 19:05:16 -81.10, 16.52 117.97 2.96 5
55 06/16/2024 19:55:56 81.10,-175.88 62.00 06/16/2024 19:56:00 81.10,-175.91 62.00 0.53 4
56 06/16/2024 20:46:41 -81.11, -8.68 117.99 06/16/2024 20:46:46 -81.11, -8.58 118.01 1.75 5
57 06/16/2024 21:37:26 81.10, 158.75 62.00 06/16/2024 21:37:31 81.10, 158.60 62.01 2.47 5
58 06/16/2024 22:28:11 -81.11, -34.06 117.99 06/16/2024 22:28:17 -81.10, -34.07 117.99 0.51 6
59 06/16/2024 23:18:56 81.10, 133.37 62.00 06/16/2024 23:19:01 81.11, 133.50 61.98 2.21 5
60 06/17/2024 00:09:41 -81.11, -59.44 117.99 06/17/2024 00:09:48 -81.10, -59.56 117.98 2.26 7
61 06/17/2024 01:00:26 81.10, 107.99 61.99 06/17/2024 01:00:32 81.11, 108.00 61.99 0.28 6
62 06/17/2024 01:51:11 -81.11, -84.81 117.99 06/17/2024 01:51:18 -81.11, -84.67 118.02 2.46 7
63 06/17/2024 02:41:56 81.10, 82.61 61.99 06/17/2024 02:42:03 81.10, 82.51 62.00 1.72 7
64 06/17/2024 03:32:41 -81.11,-110.19 117.99 06/17/2024 03:32:49 -81.10,-110.16 118.00 0.65 8
65 06/17/2024 04:23:26 81.10, 57.24 61.99 06/17/2024 04:23:33 81.11, 57.41 61.97 2.95 7
66 06/17/2024 05:14:11 -81.11,-135.57 117.99 06/17/2024 05:14:20 -81.10,-135.65 117.99 1.57 9
67 06/17/2024 06:04:56 81.10, 31.86 61.99 06/17/2024 06:05:04 81.11, 31.92 61.98 1.00 8
68 06/17/2024 06:55:41 -81.11,-160.94 118.00 06/17/2024 06:55:50 -81.11,-160.76 118.03 3.17 9
69 06/17/2024 07:46:26 81.10, 6.48 61.99 06/17/2024 07:46:35 81.10, 6.42 61.99 0.97 9
70 06/17/2024 08:37:11 -81.11, 173.68 118.00 06/17/2024 08:37:21 -81.10, 173.75 118.01 1.27 10
71 06/17/2024 09:27:56 81.10, -18.90 61.99 06/17/2024 09:28:06 81.10, -19.07 62.01 2.92 10
72 06/17/2024 10:18:41 -81.11, 148.30 118.00 06/17/2024 10:18:52 -81.10, 148.26 118.00 0.93 11
73 06/17/2024 11:09:26 81.10, -44.28 61.99 06/17/2024 11:09:36 81.11, -44.17 61.97 1.74 10
74 06/17/2024 12:00:11 -81.11, 122.92 118.00 06/17/2024 12:00:23 -81.10, 122.77 117.99 2.79 12
75 06/17/2024 12:50:56 81.10, -69.65 61.99 06/17/2024 12:51:07 81.11, -69.67 61.99 0.22 11
76 06/17/2024 13:41:41 -81.11, 97.55 118.00 06/17/2024 13:41:53 -81.11, 97.66 118.02 1.96 12
77 06/17/2024 14:32:26 81.10, -95.03 61.99 06/17/2024 14:32:38 81.10, -95.16 62.00 2.18 12
78 06/17/2024 15:23:11 -81.11, 72.17 118.00 06/17/2024 15:23:24 -81.10, 72.17 118.01 0.53 13
79 06/17/2024 16:13:56 81.11,-120.41 61.99 06/17/2024 16:14:08 81.11,-120.27 61.96 2.48 12
80 06/17/2024 17:04:41 -81.11, 46.79 118.00 06/17/2024 17:04:55 -81.10, 46.68 118.00 2.10 14
81 06/17/2024 17:55:26 81.11,-145.79 61.99 06/17/2024 17:55:39 81.11,-145.76 61.98 0.52 13
82 06/17/2024 18:46:10 -81.11, 21.42 118.00 06/17/2024 18:46:24 -81.11, 21.57 118.03 2.66 14
83 06/17/2024 19:36:55 81.11,-171.17 61.99 06/17/2024 19:37:09 81.10,-171.25 61.99 1.43 14
84 06/17/2024 20:27:40 -81.11, -3.96 118.00 06/17/2024 20:27:55 -81.10, -3.92 118.02 0.85 15
85 06/17/2024 21:18:25 81.11, 163.46 61.99 06/17/2024 21:18:39 81.11, 163.64 61.95 3.23 14
86 06/17/2024 22:09:10 -81.11, -29.34 118.00 06/17/2024 22:09:26 -81.10, -29.41 118.00 1.43 16
87 06/17/2024 22:59:55 81.11, 138.08 61.99 06/17/2024 23:00:10 81.11, 138.15 61.97 1.27 15
88 06/17/2024 23:50:39 -81.10, -54.34 118.06 06/17/2024 23:50:56 -81.11, -54.52 118.04 3.27 17
89 06/18/2024 00:41:25 81.11, 112.70 61.99 06/18/2024 00:41:41 81.10, 112.66 61.98 0.69 16
90 06/18/2024 01:32:10 -81.11, -80.09 118.00 06/18/2024 01:32:27 -81.10, -80.01 118.03 1.48 17
91 06/18/2024 02:22:55 81.11, 87.32 61.99 06/18/2024 02:23:12 81.10, 87.17 62.00 2.65 17
92 06/18/2024 03:13:40 -81.11,-105.47 118.00 06/18/2024 03:13:58 -81.10,-105.50 118.01 0.85 18
93 06/18/2024 04:04:25 81.11, 61.94 61.99 06/18/2024 04:04:42 81.11, 62.06 61.96 2.01 17
94 06/18/2024 04:55:09 -81.10,-130.47 118.06 06/18/2024 04:55:28 -81.11,-130.61 118.05 2.61 19
95 06/18/2024 05:45:55 81.11, 36.57 61.99 06/18/2024 05:46:13 81.11, 36.57 61.97 0.12 18
96 06/18/2024 06:36:40 -81.11,-156.23 118.00 06/18/2024 06:36:59 -81.11,-156.10 118.03 2.16 19
97 06/18/2024 07:27:25 81.11, 11.19 61.99 06/18/2024 07:27:44 81.10, 11.08 61.99 1.91 19
98 06/18/2024 08:18:10 -81.11, 178.40 118.00 06/18/2024 08:18:30 -81.10, 178.41 118.02 0.64 20
99 06/18/2024 09:08:55 81.11, -14.19 61.99 06/18/2024 09:09:14 81.11, -14.03 61.95 2.76 19
100 06/18/2024 09:59:40 -81.11, 153.02 118.00 06/18/2024 10:00:01 -81.10, 152.91 118.01 1.97 21
101 06/18/2024 10:50:25 81.11, -39.57 61.99 06/18/2024 10:50:45 81.11, -39.52 61.97 0.81 20
102 06/18/2024 11:41:10 -81.11, 127.64 118.00 06/18/2024 11:41:31 -81.11, 127.81 118.04 2.85 21
103 06/18/2024 12:31:55 81.11, -64.95 61.98 06/18/2024 12:32:16 81.10, -65.01 61.98 1.18 21
104 06/18/2024 13:22:40 -81.11, 102.26 118.00 06/18/2024 13:23:02 -81.10, 102.31 118.03 1.05 22
105 06/18/2024 14:13:25 81.11, -90.33 61.98 06/18/2024 14:13:47 81.10, -90.51 62.00 3.13 22
106 06/18/2024 15:04:10 -81.11, 76.89 118.00 06/18/2024 15:04:33 -81.10, 76.82 118.01 1.34 23
107 06/18/2024 15:54:55 81.11,-115.71 61.98 06/18/2024 15:55:17 81.11,-115.62 61.96 1.55 22
108 06/18/2024 16:45:39 -81.10, 51.88 118.06 06/18/2024 16:46:03 -81.11, 51.71 118.05 3.07 24
109 06/18/2024 17:36:25 81.11,-141.08 61.98 06/18/2024 17:36:48 81.10,-141.11 61.97 0.48 23
110 06/18/2024 18:27:10 -81.11, 26.13 118.01 06/18/2024 18:27:34 -81.10, 26.22 118.03 1.67 24
111 06/18/2024 19:17:55 81.11,-166.46 61.99 06/18/2024 19:18:19 81.10,-166.60 61.99 2.40 24
112 06/18/2024 20:08:40 -81.11, 0.75 118.01 06/18/2024 20:09:05 -81.10, 0.73 118.02 0.85 25
113 06/18/2024 20:59:25 81.11, 168.16 61.99 06/18/2024 20:59:49 81.11, 168.29 61.95 2.28 24
114 06/18/2024 21:50:09 -81.10, -24.25 118.06 06/18/2024 21:50:35 -81.11, -24.38 118.05 2.42 26
115 06/18/2024 22:40:55 81.11, 142.78 61.99 06/18/2024 22:41:20 81.10, 142.80 61.97 0.41 25
116 06/18/2024 23:31:40 -81.11, -50.00 118.01 06/18/2024 23:32:06 -81.11, -49.87 118.04 2.34 26
117 06/19/2024 00:22:25 81.11, 117.40 61.99 06/19/2024 00:22:51 81.10, 117.31 61.98 1.68 26
118 06/19/2024 01:13:10 -81.11, -75.38 118.00 06/19/2024 01:13:37 -81.10, -75.36 118.03 0.80 27
119 06/19/2024 02:03:55 81.11, 92.02 61.99 06/19/2024 02:04:21 81.11, 92.20 61.95 3.02 26
120 06/19/2024 02:54:39 -81.10,-100.38 118.06 06/19/2024 02:55:07 -81.11,-100.47 118.06 1.80 28
121 06/19/2024 03:45:25 81.11, 66.64 61.99 06/19/2024 03:45:52 81.11, 66.71 61.96 1.10 27
122 06/19/2024 04:36:10 -81.11,-126.14 118.00 06/19/2024 04:36:38 -81.11,-125.96 118.05 3.03 28
123 06/19/2024 05:26:55 81.11, 41.26 61.99 06/19/2024 05:27:23 81.10, 41.21 61.98 0.98 28
124 06/19/2024 06:17:40 -81.11,-151.52 118.00 06/19/2024 06:18:09 -81.10,-151.46 118.03 1.25 29
125 06/19/2024 07:08:25 81.11, 15.89 61.99 06/19/2024 07:08:54 81.10, 15.72 61.99 2.90 29
126 06/19/2024 07:59:09 -81.10,-176.52 118.06 06/19/2024 07:59:39 -81.11,-176.57 118.07 1.27 30
127 06/19/2024 08:49:55 81.11, -9.49 61.99 06/19/2024 08:50:24 81.11, -9.39 61.96 1.82 29
128 06/19/2024 09:40:39 -81.10, 158.10 118.06 06/19/2024 09:41:10 -81.11, 157.94 118.05 2.89 31
129 06/19/2024 10:31:25 81.11, -34.87 61.99 06/19/2024 10:31:55 81.10, -34.88 61.97 0.44 30
130 06/19/2024 11:22:10 -81.11, 132.35 118.00 06/19/2024 11:22:41 -81.10, 132.45 118.04 1.86 31
131 06/19/2024 12:12:55 81.11, -60.25 61.99 06/19/2024 12:13:26 81.10, -60.37 61.98 2.18 31
132 06/19/2024 13:03:40 -81.11, 106.97 118.00 06/19/2024 13:04:12 -81.10, 106.96 118.02 0.92 32
133 06/19/2024 13:54:25 81.11, -85.63 61.99 06/19/2024 13:54:56 81.11, -85.48 61.95 2.56 31
134 06/19/2024 14:45:09 -81.10, 81.97 118.06 06/19/2024 14:45:42 -81.11, 81.85 118.06 2.23 33
135 06/19/2024 15:35:55 81.11,-111.01 61.99 06/19/2024 15:36:27 81.10,-110.98 61.96 0.72 32
136 06/19/2024 16:26:40 -81.11, 56.22 118.00 06/19/2024 16:27:13 -81.10, 56.36 118.04 2.52 33
137 06/19/2024 17:17:25 81.11,-136.39 61.99 06/19/2024 17:17:58 81.10,-136.47 61.98 1.49 33
138 06/19/2024 18:08:10 -81.11, 30.84 118.00 06/19/2024 18:08:44 -81.10, 30.86 118.03 0.99 34
139 06/19/2024 18:58:55 81.11,-161.77 61.99 06/19/2024 18:59:28 81.11,-161.58 61.94 3.29 33
140 06/19/2024 19:49:39 -81.10, 5.83 118.06 06/19/2024 19:50:14 -81.11, 5.75 118.06 1.60 35
141 06/19/2024 20:40:25 81.11, 172.85 61.99 06/19/2024 20:40:59 81.11, 172.93 61.96 1.39 34
142 06/19/2024 21:31:09 -81.11, -19.92 118.00 06/19/2024 21:31:44 -81.11, -19.74 118.05 3.19 35
143 06/19/2024 22:21:54 81.11, 147.47 61.99 06/19/2024 22:22:29 81.10, 147.44 61.97 0.87 35
144 06/19/2024 23:12:39 -81.11, -45.30 118.00 06/19/2024 23:13:15 -81.10, -45.23 118.03 1.45 36
145 06/20/2024 00:03:24 81.11, 122.09 61.99 06/20/2024 00:04:00 81.10, 121.94 61.99 2.70 36
146 06/20/2024 00:54:08 -81.10, -70.30 118.06 06/20/2024 00:54:45 -81.11, -70.34 118.07 1.07 37
147 06/20/2024 01:44:54 81.11, 96.71 61.99 06/20/2024 01:45:30 81.11, 96.83 61.96 2.10 36
148 06/20/2024 02:35:38 -81.10, -95.68 118.05 06/20/2024 02:36:16 -81.11, -95.83 118.05 2.72 38
149 06/20/2024 03:26:24 81.11, 71.34 61.99 06/20/2024 03:27:01 81.10, 71.34 61.97 0.61 37
150 06/20/2024 04:17:09 -81.11,-121.43 118.00 06/20/2024 04:17:47 -81.10,-121.33 118.04 2.05 38
151 06/20/2024 05:07:54 81.11, 45.96 62.00 06/20/2024 05:08:32 81.10, 45.85 61.99 2.01 38
152 06/20/2024 05:58:38 -81.10,-146.44 118.05 06/20/2024 05:59:17 -81.11,-146.44 118.07 0.82 39
153 06/20/2024 06:49:24 81.11, 20.58 62.00 06/20/2024 06:50:02 81.11, 20.74 61.95 2.83 38
154 06/20/2024 07:40:08 -81.10,-171.82 118.05 06/20/2024 07:40:48 -81.11,-171.93 118.06 2.05 40
155 06/20/2024 08:30:54 81.11, -4.80 62.00 06/20/2024 08:31:33 81.10, -4.75 61.97 1.04 39
156 06/20/2024 09:21:39 -81.11, 162.43 118.00 06/20/2024 09:22:19 -81.10, 162.58 118.04 2.69 40
157 06/20/2024 10:12:24 81.11, -30.18 62.00 06/20/2024 10:13:04 81.10, -30.25 61.98 1.37 40
158 06/20/2024 11:03:08 -81.10, 137.43 118.05 06/20/2024 11:03:49 -81.11, 137.47 118.08 1.09 41
159 06/20/2024 11:53:53 81.10, -55.19 61.94 06/20/2024 11:54:34 81.11, -55.36 61.95 3.09 41
160 06/20/2024 12:44:38 -81.10, 112.05 118.05 06/20/2024 12:45:20 -81.11, 111.97 118.06 1.41 42
161 06/20/2024 13:35:24 81.11, -80.94 62.00 06/20/2024 13:36:05 81.11, -80.85 61.96 1.69 41
162 06/20/2024 14:26:08 -81.10, 86.67 118.05 06/20/2024 14:26:51 -81.11, 86.48 118.05 3.25 43
163 06/20/2024 15:16:54 81.11,-106.32 62.00 06/20/2024 15:17:36 81.10,-106.34 61.98 0.89 42
164 06/20/2024 16:07:38 -81.10, 61.29 118.05 06/20/2024 16:08:21 -81.11, 61.37 118.08 1.62 43
165 06/20/2024 16:58:23 81.10,-131.32 61.95 06/20/2024 16:59:06 81.11,-131.45 61.94 2.40 43
166 06/20/2024 17:49:08 -81.10, 35.91 118.05 06/20/2024 17:49:52 -81.11, 35.88 118.06 0.86 44
167 06/20/2024 18:39:54 81.11,-157.08 62.00 06/20/2024 18:40:37 81.11,-156.95 61.96 2.39 43
168 06/20/2024 19:30:38 -81.10, 10.53 118.05 06/20/2024 19:31:23 -81.11, 10.39 118.05 2.57 45
169 06/20/2024 20:21:24 81.11, 177.54 62.01 06/20/2024 20:22:08 81.10, 177.56 61.97 0.88 44
170 06/20/2024 21:12:09 -81.11, -15.22 117.99 06/20/2024 21:12:54 -81.10, -15.11 118.03 2.23 45
171 06/20/2024 22:02:53 81.10, 152.54 61.95 06/20/2024 22:03:38 81.11, 152.45 61.94 1.74 45
172 06/20/2024 22:53:38 -81.10, -40.23 118.04 06/20/2024 22:54:24 -81.11, -40.22 118.07 0.66 46
173 06/20/2024 23:44:24 81.11, 126.78 62.01 06/20/2024 23:45:09 81.11, 126.95 61.96 3.10 45
174 06/21/2024 00:35:08 -81.10, -65.61 118.04 06/21/2024 00:35:55 -81.11, -65.71 118.05 1.89 47
175 06/21/2024 01:25:54 81.11, 101.40 62.01 06/21/2024 01:26:40 81.10, 101.46 61.97 1.35 46
176 06/21/2024 02:16:39 -81.11, -91.36 117.98 06/21/2024 02:17:26 -81.10, -91.21 118.04 2.86 47
177 06/21/2024 03:07:23 81.10, 76.40 61.95 06/21/2024 03:08:10 81.11, 76.35 61.94 1.16 47
178 06/21/2024 03:58:08 -81.10,-116.36 118.04 06/21/2024 03:58:56 -81.11,-116.32 118.07 1.04 48
179 06/21/2024 04:48:53 81.10, 51.02 61.96 06/21/2024 04:49:41 81.11, 50.86 61.95 2.81 48
180 06/21/2024 05:39:38 -81.10,-141.74 118.04 06/21/2024 05:40:27 -81.11,-141.81 118.05 1.24 49
181 06/21/2024 06:30:24 81.11, 25.26 62.01 06/21/2024 06:31:12 81.10, 25.36 61.97 1.99 48
182 06/21/2024 07:21:08 -81.10,-167.12 118.04 06/21/2024 07:21:58 -81.10,-167.30 118.04 3.12 50
183 06/21/2024 08:11:53 81.10, 0.26 61.96 06/21/2024 08:12:42 81.11, 0.25 61.93 0.85 49
184 06/21/2024 09:02:38 -81.10, 167.50 118.04 06/21/2024 09:03:28 -81.11, 167.59 118.07 1.63 50
185 06/21/2024 09:53:23 81.10, -25.13 61.96 06/21/2024 09:54:13 81.11, -25.24 61.95 2.10 50
186 06/21/2024 10:44:08 -81.10, 142.12 118.03 06/21/2024 10:44:59 -81.11, 142.09 118.06 0.65 51
187 06/21/2024 11:34:54 81.11, -50.88 62.02 06/21/2024 11:35:44 81.11, -50.74 61.97 2.67 50
188 06/21/2024 12:25:38 -81.10, 116.74 118.03 06/21/2024 12:26:30 -81.11, 116.60 118.04 2.44 52
189 06/21/2024 13:16:23 81.10, -75.89 61.96 06/21/2024 13:17:14 81.11, -75.85 61.93 1.08 51
190 06/21/2024 14:07:08 -81.10, 91.36 118.03 06/21/2024 14:08:00 -81.11, 91.49 118.07 2.28 52
191 06/21/2024 14:57:53 81.10,-101.27 61.97 06/21/2024 14:58:45 81.11,-101.34 61.95 1.43 52
192 06/21/2024 15:48:38 -81.10, 65.98 118.03 06/21/2024 15:49:31 -81.11, 65.99 118.06 0.50 53
193 06/21/2024 16:39:23 81.10,-126.65 61.97 06/21/2024 16:40:16 81.11,-126.83 61.96 3.26 53
194 06/21/2024 17:30:08 -81.10, 40.60 118.03 06/21/2024 17:31:02 -81.11, 40.50 118.04 1.76 54
195 06/21/2024 18:20:53 81.10,-152.03 61.97 06/21/2024 18:21:46 81.11,-151.94 61.93 1.63 53
196 06/21/2024 19:11:38 -81.10, 15.22 118.03 06/21/2024 19:12:32 -81.11, 15.39 118.08 2.94 54
197 06/21/2024 20:02:23 81.10,-177.41 61.97 06/21/2024 20:03:17 81.11,-177.44 61.95 0.83 54
198 06/21/2024 20:53:08 -81.10, -10.16 118.02 06/21/2024 20:54:03 -81.11, -10.11 118.06 1.01 55
199 06/21/2024 21:43:53 81.10, 157.21 61.97 06/21/2024 21:44:48 81.11, 157.07 61.96 2.54 55
200 06/21/2024 22:34:38 -81.10, -35.54 118.02 06/21/2024 22:35:34 -81.11, -35.60 118.04 1.09 56
201 06/21/2024 23:25:23 81.10, 131.83 61.97 06/21/2024 23:26:18 81.11, 131.96 61.93 2.28 55
202 06/22/2024 00:16:08 -81.10, -60.92 118.02 06/22/2024 00:17:05 -81.10, -61.09 118.03 3.02 57
203 06/22/2024 01:06:52 81.10, 106.45 61.98 06/22/2024 01:07:48 81.11, 106.46 61.95 0.63 56
204 06/22/2024 01:57:37 -81.10, -86.30 118.02 06/22/2024 01:58:34 -81.11, -86.20 118.06 1.65 57
205 06/22/2024 02:48:22 81.10, 81.07 61.98 06/22/2024 02:49:19 81.11, 80.97 61.96 1.83 57
206 06/22/2024 03:39:07 -81.10,-111.68 118.02 06/22/2024 03:40:05 -81.11,-111.70 118.05 0.45 58
207 06/22/2024 04:29:53 81.11, 55.31 62.04 06/22/2024 04:30:50 81.10, 55.47 61.98 2.96 57
208 06/22/2024 05:20:37 -81.10,-137.06 118.01 06/22/2024 05:21:36 -81.10,-137.19 118.03 2.34 59
209 06/22/2024 06:11:22 81.10, 30.31 61.98 06/22/2024 06:12:20 81.11, 30.36 61.94 1.08 58
210 06/22/2024 07:02:07 -81.10,-162.44 118.01 06/22/2024 07:03:06 -81.11,-162.30 118.06 2.31 59
211 06/22/2024 07:52:52 81.10, 4.93 61.98 06/22/2024 07:53:51 81.11, 4.87 61.96 1.13 59
212 06/22/2024 08:43:37 -81.10, 172.18 118.01 06/22/2024 08:44:37 -81.11, 172.20 118.05 0.38 60
213 06/22/2024 09:34:22 81.10, -20.45 61.99 06/22/2024 09:35:22 81.11, -20.63 61.98 3.02 60
214 06/22/2024 10:25:07 -81.10, 146.80 118.01 06/22/2024 10:26:08 -81.11, 146.71 118.03 1.66 61
215 06/22/2024 11:15:52 81.10, -45.83 61.99 06/22/2024 11:16:52 81.11, -45.74 61.94 1.72 60
216 06/22/2024 12:06:37 -81.11, 121.42 118.01 06/22/2024 12:07:38 -81.11, 121.60 118.06 2.98 61
217 06/22/2024 12:57:22 81.10, -71.21 61.99 06/22/2024 12:58:23 81.11, -71.23 61.96 0.50 61
218 06/22/2024 13:48:07 -81.11, 96.04 118.00 06/22/2024 13:49:09 -81.11, 96.10 118.05 1.01 62
219 06/22/2024 14:38:52 81.10, -96.59 61.99 06/22/2024 14:39:54 81.11, -96.73 61.98 2.30 62
220 06/22/2024 15:29:37 -81.11, 70.66 118.00 06/22/2024 15:30:40 -81.11, 70.61 118.03 0.98 63
221 06/22/2024 16:20:22 81.10,-121.98 62.00 06/22/2024 16:21:24 81.11,-121.84 61.94 2.41 62
222 06/22/2024 17:11:07 -81.11, 45.28 118.00 06/22/2024 17:12:11 -81.10, 45.11 118.01 2.95 64
223 06/22/2024 18:01:52 81.10,-147.36 62.00 06/22/2024 18:02:55 81.11,-147.33 61.96 0.52 63
224 06/22/2024 18:52:37 -81.11, 19.90 118.00 06/22/2024 18:53:41 -81.11, 20.00 118.05 1.67 64
225 06/22/2024 19:43:22 81.10,-172.74 62.00 06/22/2024 19:44:26 81.11,-172.83 61.98 1.57 64
226 06/22/2024 20:34:07 -81.11, -5.48 118.00 06/22/2024 20:35:12 -81.11, -5.49 118.03 0.30 65
227 06/22/2024 21:24:52 81.10, 161.88 62.00 06/22/2024 21:25:56 81.11, 162.06 61.94 3.11 64
228 06/22/2024 22:15:37 -81.11, -30.86 117.99 06/22/2024 22:16:43 -81.10, -30.99 118.01 2.28 66
229 06/22/2024 23:06:22 81.10, 136.50 62.01 06/22/2024 23:07:27 81.11, 136.56 61.96 1.16 65
230 06/22/2024 23:57:07 -81.11, -56.24 117.99 06/22/2024 23:58:13 -81.11, -56.10 118.05 2.34 66
231 06/23/2024 00:47:52 81.11, 111.12 62.01 06/23/2024 00:48:58 81.11, 111.07 61.98 0.86 66
232 06/23/2024 01:38:37 -81.11, -81.62 117.99 06/23/2024 01:39:44 -81.11, -81.60 118.03 0.37 67
233 06/23/2024 02:29:22 81.11, 85.74 62.01 06/23/2024 02:30:29 81.10, 85.57 61.99 2.81 67
234 06/23/2024 03:20:07 -81.11,-107.00 117.99 06/23/2024 03:21:15 -81.10,-107.09 118.01 1.61 68
235 06/23/2024 04:10:52 81.11, 60.36 62.01 06/23/2024 04:11:59 81.11, 60.46 61.96 1.85 67
236 06/23/2024 05:01:37 -81.11,-132.38 117.98 06/23/2024 05:02:45 -81.11,-132.20 118.05 3.01 68
237 06/23/2024 05:52:22 81.11, 34.97 62.02 06/23/2024 05:53:30 81.11, 34.97 61.98 0.16 68
238 06/23/2024 06:43:07 -81.11,-157.76 117.98 06/23/2024 06:44:16 -81.11,-157.70 118.03 1.04 69
239 06/23/2024 07:33:52 81.11, 9.59 62.02 06/23/2024 07:35:01 81.11, 9.47 62.00 2.09 69
240 06/23/2024 08:24:37 -81.11, 176.86 117.98 06/23/2024 08:25:47 -81.11, 176.81 118.01 0.95 70
241 06/23/2024 09:15:22 81.11, -15.79 62.02 06/23/2024 09:16:31 81.11, -15.64 61.96 2.56 69
242 06/23/2024 10:06:07 -81.11, 151.48 117.98 06/23/2024 10:07:18 -81.10, 151.31 118.00 2.92 71
243 06/23/2024 10:56:52 81.11, -41.17 62.02 06/23/2024 10:58:02 81.11, -41.14 61.98 0.59 70
244 06/23/2024 11:47:37 -81.11, 126.10 117.97 06/23/2024 11:48:48 -81.11, 126.20 118.03 1.72 71
245 06/23/2024 12:38:22 81.11, -66.55 62.03 06/23/2024 12:39:33 81.11, -66.63 62.00 1.38 71
246 06/23/2024 13:29:07 -81.11, 100.72 117.97 06/23/2024 13:30:19 -81.11, 100.70 118.01 0.36 72
247 06/23/2024 14:19:52 81.11, -91.93 62.03 06/23/2024 14:21:03 81.11, -91.74 61.96 3.27 71
248 06/23/2024 15:10:37 -81.11, 75.34 117.97 06/23/2024 15:11:50 -81.10, 75.21 117.99 2.26 73
249 06/23/2024 16:01:22 81.11,-117.31 62.03 06/23/2024 16:02:34 81.11,-117.24 61.98 1.31 72
250 06/23/2024 16:52:07 -81.11, 49.96 117.97 06/23/2024 16:53:20 -81.11, 50.10 118.03 2.39 73
251 06/23/2024 17:42:52 81.11,-142.70 62.03 06/23/2024 17:44:05 81.11,-142.73 62.00 0.67 73
252 06/23/2024 18:33:37 -81.11, 24.58 117.96 06/23/2024 18:34:51 -81.11, 24.60 118.01 0.50 74
253 06/23/2024 19:24:22 81.11,-168.08 62.04 06/23/2024 19:25:36 81.10,-168.23 62.01 2.64 74
254 06/23/2024 20:15:07 -81.11, -0.80 117.96 06/23/2024 20:16:22 -81.10, -0.89 117.99 1.62 75
255 06/23/2024 21:05:52 81.11, 166.54 62.04 06/23/2024 21:07:06 81.11, 166.66 61.98 2.02 74
256 06/23/2024 21:56:37 -81.11, -26.19 117.96 06/23/2024 21:57:52 -81.11, -26.01 118.02 3.06 75
257 06/23/2024 22:47:22 81.11, 141.16 62.04 06/23/2024 22:48:37 81.11, 141.16 62.00 0.22 75



Historial Predications of SNOs between NOAA-21 and FY3D
